Weather History for Melilla, Spain

Change the Weather History Date:

Monday, October 29, 2012

  Actual Average Record
Temperature  
Mean Temperature 61 °F -  
Max Temperature 65 °F 69 °F 82 °F (2005)
Min Temperature 57 °F 57 °F 57 °F (1996)
Degree Days  
Heating Degree Days 4    
Growing Degree Days 11 (Base 50)    
Moisture  
Dew Point 57 °F    
Average Humidity 79    
Maximum Humidity 94    
Minimum Humidity 66    
Precipitation  
Precipitation 0.00 in 0.05 in - ()
Sea Level Pressure  
Sea Level Pressure 29.91 in    
Wind  
Wind Speed 2 mph ()    
Max Wind Speed 7 mph    
Max Gust Speed -    
Visibility 6.4 miles    
Events      
Averages and records for this station are not official NWS values.
T = Trace of Precipitation, MM = Missing Value Source: Averaged Metar Reports

Daily Weather History Graph

Daily Weather History Graph

Search for Another Location

Airport:

Trip Planner

Search our weather history database for the weather conditions in past years. The results will help you decide how hot, cold, wet, or windy it might be!

Date:

Astronomy

Oct. 29, 2012 Rise Set
Actual Time 7:30 AM CET 6:19 PM CET
Civil Twilight 7:04 AM CET 6:45 PM CET
Nautical Twilight 6:34 AM CET 7:15 PM CET
Astronomical Twilight 6:05 AM CET 7:45 PM CET
Moon 6:04 PM CET (10/29) 7:06 AM CET (10/29)
Length of Visible Light 11h 41m
Length of Day
10h 49m
Full, 100% of the Moon is Illuminated
Oct 29
Full
Oct 29
Full
Nov 7
Last Quarter
Nov 13
New
Nov 20
First Quarter

Hourly Weather History & Observations

Time (CET) Temp. Dew Point Humidity Pressure Visibility Wind Dir Wind Speed Gust Speed Precip Events Conditions
6:00 AM 59.0 °F 57.2 °F 94% 29.95 in 6.2 mi Calm Calm - N/A   Partly Cloudy
6:30 AM 57.2 °F 55.4 °F 94% 29.95 in 5.6 mi Calm Calm - N/A   Unknown
7:00 AM 59 °F 55 °F 81% 29.96 in 6 mi Calm Calm - -   Mist
7:00 AM 57.2 °F 55.4 °F 94% 29.95 in 5.6 mi Calm Calm - N/A   Partly Cloudy
7:30 AM 59.0 °F 57.2 °F 94% 29.95 in 5.6 mi Variable 1.2 mph - N/A   Scattered Clouds
8:00 AM 59.0 °F 57.2 °F 94% 29.95 in 6.2 mi Calm Calm - N/A   Scattered Clouds
8:30 AM 60.8 °F 57.2 °F 88% 29.95 in 6.2 mi Calm Calm - N/A   Scattered Clouds
9:00 AM 60.8 °F 59.0 °F 94% 29.95 in 6.2 mi Calm Calm - N/A   Mostly Cloudy
9:30 AM 64.4 °F 59.0 °F 83% 29.98 in 6.2 mi Variable 1.2 mph - N/A   Mostly Cloudy
10:00 AM 66.2 °F 59.0 °F 78% 29.98 in 6.2 mi Variable 2.3 mph - N/A   Mostly Cloudy
10:30 AM 66.2 °F 59.0 °F 78% 29.95 in 6.2 mi East 4.6 mph - N/A   Mostly Cloudy
11:00 AM 64.4 °F 59.0 °F 83% 29.95 in 6.2 mi East 3.5 mph - N/A   Mostly Cloudy
12:00 PM 66.2 °F 59.0 °F 78% 29.95 in 6.2 mi East 4.6 mph - N/A   Mostly Cloudy
12:30 PM 66.2 °F 57.2 °F 73% 29.92 in 6.2 mi ENE 6.9 mph - N/A   Scattered Clouds
1:00 PM 65 °F 57 °F 67% 29.92 in 25 mi ENE 6.9 mph - -   Partly Cloudy
1:00 PM 66.2 °F 57.2 °F 73% 29.92 in 6.2 mi ENE 6.9 mph - N/A   Scattered Clouds
1:30 PM 66.2 °F 57.2 °F 73% 29.89 in 6.2 mi NE 5.8 mph - N/A   Scattered Clouds
2:00 PM 66.2 °F 57.2 °F 73% 29.89 in 6.2 mi NE 5.8 mph - N/A   Scattered Clouds
2:30 PM 66.2 °F 57.2 °F 73% 29.89 in 6.2 mi NE 5.8 mph - N/A   Scattered Clouds
3:00 PM 66.2 °F 57.2 °F 73% 29.86 in 6.2 mi ENE 4.6 mph - N/A   Scattered Clouds
3:30 PM 66.2 °F 57.2 °F 73% 29.86 in 6.2 mi ENE 4.6 mph - N/A   Scattered Clouds
4:00 PM 66.2 °F 57.2 °F 73% 29.86 in 6.2 mi ENE 3.5 mph - N/A   Scattered Clouds
4:30 PM 66.2 °F 57.2 °F 73% 29.86 in 6.2 mi Variable 2.3 mph - N/A   Partly Cloudy
5:00 PM 66.2 °F 57.2 °F 73% 29.86 in 6.2 mi NE 3.5 mph - N/A   Partly Cloudy
5:30 PM 64.4 °F 55.4 °F 73% 29.86 in 6.2 mi Variable 2.3 mph - N/A   Partly Cloudy
6:30 PM 64.4 °F 55.4 °F 73% 29.86 in - Variable 1.2 mph - N/A   Clear
7:00 PM 64 °F 55 °F 66% 29.86 in 12 mi Calm Calm - -   Scattered Clouds
7:00 PM 64.4 °F 55.4 °F 73% 29.86 in - Calm Calm - N/A   Clear
7:30 PM 64.4 °F 55.4 °F 73% 29.86 in - Variable 1.2 mph - N/A   Clear